Time,TemperatureF,DewpointF,PressureIn,WindDirection,WindDirectionDegrees,WindSpeedMPH,WindSpeedGustMPH,Humidity,HourlyPrecipIn,Conditions,Clouds,dailyrainin,SoftwareType,DateUTC
2013-02-16 00:00:00,68.4,67.5,30.92,SSE,158,0.0,3.0,97,0.11,,,0.73,Wunderground v.1.15,2013-02-16 05:00:00,
2013-02-16 00:01:00,68.3,67.4,30.92,SSW,208,0.0,3.0,97,0.11,,,0.73,Wunderground v.1.15,2013-02-16 05:01:00,
2013-02-16 00:03:00,68.4,67.5,30.92,South,191,1.0,3.0,97,0.11,,,0.74,Wunderground v.1.15,2013-02-16 05:03:00,
2013-02-16 00:08:00,68.4,67.5,30.91,East,92,1.0,3.0,97,0.17,,,0.75,Wunderground v.1.15,2013-02-16 05:08:00,
2013-02-16 00:13:00,68.4,67.5,30.91,ESE,117,1.0,3.0,97,0.07,,,0.75,Wunderground v.1.15,2013-02-16 05:13:00,
2013-02-16 00:14:00,68.4,67.5,30.91,SE,136,1.0,3.0,97,0.06,,,0.75,Wunderground v.1.15,2013-02-16 05:14:00,
2013-02-16 00:19:00,68.3,67.1,30.91,SE,146,1.0,3.0,96,0.04,,,0.75,Wunderground v.1.15,2013-02-16 05:19:00,
2013-02-16 00:24:00,68.0,67.1,30.91,SSE,158,2.0,6.0,97,0.04,,,0.76,Wunderground v.1.15,2013-02-16 05:24:00,
2013-02-16 00:27:00,67.9,67.0,30.91,SW,216,2.0,6.0,97,0.08,,,0.77,Wunderground v.1.15,2013-02-16 05:27:00,
2013-02-16 00:32:00,68.0,67.1,30.91,West,274,2.0,3.0,97,0.15,,,0.78,Wunderground v.1.15,2013-02-16 05:32:00,
2013-02-16 00:37:00,68.1,67.2,30.90,SW,214,1.0,3.0,97,0.09,,,0.78,Wunderground v.1.15,2013-02-16 05:37:00,
2013-02-16 00:42:00,68.1,67.2,30.90,SW,221,0.0,3.0,97,0.06,,,0.79,Wunderground v.1.15,2013-02-16 05:42:00,
2013-02-16 00:47:00,68.2,67.3,30.90,SW,226,0.0,3.0,97,0.06,,,0.79,Wunderground v.1.15,2013-02-16 05:47:00,
2013-02-16 00:53:00,68.3,67.4,30.90,SW,216,1.0,3.0,97,0.06,,,0.80,Wunderground v.1.15,2013-02-16 05:53:00,
2013-02-16 00:58:00,68.4,67.5,30.90,WSW,248,1.0,3.0,97,0.06,,,0.80,Wunderground v.1.15,2013-02-16 05:58:00,
2013-02-16 01:04:00,68.4,67.5,30.90,SW,228,0.0,3.0,97,0.05,,,0.80,Wunderground v.1.15,2013-02-16 06:04:00,
2013-02-16 01:09:00,68.4,67.5,30.90,SW,231,0.0,3.0,97,0.04,,,0.81,Wunderground v.1.15,2013-02-16 06:09:00,
2013-02-16 01:14:00,68.5,67.6,30.90,WNW,284,0.0,3.0,97,0.12,,,0.82,Wunderground v.1.15,2013-02-16 06:14:00,
2013-02-16 01:20:00,68.6,67.7,30.90,WSW,240,1.0,3.0,97,0.07,,,0.82,Wunderground v.1.15,2013-02-16 06:20:00,
2013-02-16 01:25:00,68.7,67.8,30.89,NW,304,1.0,4.0,97,0.05,,,0.83,Wunderground v.1.15,2013-02-16 06:25:00,
2013-02-16 01:30:00,68.7,67.8,30.89,WSW,240,1.0,1.0,97,0.05,,,0.83,Wunderground v.1.15,2013-02-16 06:30:00,
2013-02-16 01:36:00,68.7,67.8,30.89,WSW,252,0.0,3.0,97,0.06,,,0.84,Wunderground v.1.15,2013-02-16 06:36:00,
2013-02-16 01:41:00,68.7,67.8,30.89,West,270,1.0,5.0,97,0.12,,,0.85,Wunderground v.1.15,2013-02-16 06:41:00,
2013-02-16 01:47:00,68.8,67.9,30.89,WNW,293,2.0,6.0,97,0.08,,,0.85,Wunderground v.1.15,2013-02-16 06:47:00,
2013-02-16 01:52:00,68.8,67.9,30.88,West,276,2.0,3.0,97,0.05,,,0.85,Wunderground v.1.15,2013-02-16 06:52:00,
2013-02-16 01:57:00,68.9,68.0,30.89,NNW,340,1.0,3.0,97,0.04,,,0.86,Wunderground v.1.15,2013-02-16 06:57:00,
2013-02-16 02:02:00,68.9,68.0,30.89,West,262,2.0,3.0,97,0.10,,,0.87,Wunderground v.1.15,2013-02-16 07:02:00,
2013-02-16 02:08:00,68.8,67.9,30.89,WSW,257,2.0,6.0,97,0.11,,,0.88,Wunderground v.1.15,2013-02-16 07:08:00,
2013-02-16 02:13:00,68.8,67.9,30.88,West,262,2.0,3.0,97,0.14,,,0.89,Wunderground v.1.15,2013-02-16 07:13:00,
2013-02-16 02:18:00,68.9,68.0,30.88,NW,306,1.0,3.0,97,0.15,,,0.90,Wunderground v.1.15,2013-02-16 07:18:00,
2013-02-16 02:23:00,69.0,68.1,30.88,North,358,0.0,3.0,97,0.07,,,0.91,Wunderground v.1.15,2013-02-16 07:23:00,
2013-02-16 02:28:00,68.9,68.0,30.87,NNW,327,0.0,3.0,97,0.07,,,0.00,Wunderground v.1.15,2013-02-16 07:28:00,
2013-02-16 02:33:00,68.9,68.0,30.87,NW,318,1.0,3.0,97,0.07,,,0.01,Wunderground v.1.15,2013-02-16 07:33:00,
2013-02-16 05:06:00,66.2,65.3,30.86,NNW,336,3.0,5.0,97,0.00,,,0.10,Wunderground v.1.15,2013-02-16 10:06:00,
2013-02-16 05:17:00,65.8,64.9,30.85,North,354,3.0,3.0,97,0.00,,,0.10,Wunderground v.1.15,2013-02-16 10:17:00,
2013-02-16 05:23:00,65.7,64.8,30.86,NNW,333,2.0,7.0,97,0.00,,,0.10,Wunderground v.1.15,2013-02-16 10:23:00,
2013-02-16 05:29:00,65.8,64.9,30.86,North,8,3.0,7.0,97,0.00,,,0.10,Wunderground v.1.15,2013-02-16 10:29:00,
2013-02-16 05:35:00,65.6,64.4,30.86,NNW,346,4.0,10.0,96,0.00,,,0.10,Wunderground v.1.15,2013-02-16 10:35:00,
2013-02-16 05:40:00,65.5,64.3,30.86,West,262,4.0,7.0,96,0.00,,,0.10,Wunderground v.1.15,2013-02-16 10:40:00,
2013-02-16 05:46:00,65.3,64.1,30.86,North,354,3.0,7.0,96,0.00,,,0.10,Wunderground v.1.15,2013-02-16 10:46:00,
2013-02-16 05:52:00,65.3,64.1,30.86,NE,41,3.0,7.0,96,0.00,,,0.10,Wunderground v.1.15,2013-02-16 10:52:00,
2013-02-16 05:58:00,65.5,64.0,30.87,NW,326,3.0,7.0,95,0.00,,,0.10,Wunderground v.1.15,2013-02-16 10:58:00,
2013-02-16 06:03:00,65.5,64.0,30.87,NNE,31,3.0,7.0,95,0.00,,,0.10,Wunderground v.1.15,2013-02-16 11:03:00,
2013-02-16 06:09:00,65.7,64.2,30.87,North,354,3.0,7.0,95,0.00,,,0.10,Wunderground v.1.15,2013-02-16 11:09:00,
2013-02-16 06:15:00,65.9,64.4,30.87,NNE,32,2.0,7.0,95,0.00,,,0.10,Wunderground v.1.15,2013-02-16 11:15:00,
2013-02-16 06:20:00,66.0,64.2,30.87,NNE,22,3.0,7.0,94,0.00,,,0.10,Wunderground v.1.15,2013-02-16 11:20:00,
2013-02-16 06:26:00,66.0,64.2,30.87,North,356,3.0,7.0,94,0.00,,,0.10,Wunderground v.1.15,2013-02-16 11:26:00,
2013-02-16 06:32:00,65.9,64.1,30.87,NE,41,2.0,7.0,94,0.00,,,0.10,Wunderground v.1.15,2013-02-16 11:32:00,
2013-02-16 06:38:00,66.1,64.3,30.88,North,1,2.0,7.0,94,0.00,,,0.10,Wunderground v.1.15,2013-02-16 11:38:00,
2013-02-16 06:44:00,66.3,64.5,30.88,WNW,300,3.0,7.0,94,0.00,,,0.10,Wunderground v.1.15,2013-02-16 11:44:00,
2013-02-16 06:49:00,66.3,64.5,30.88,NNE,25,2.0,7.0,94,0.00,,,0.10,Wunderground v.1.15,2013-02-16 11:49:00,
2013-02-16 06:55:00,66.3,64.5,30.88,NNE,31,3.0,7.0,94,0.00,,,0.10,Wunderground v.1.15,2013-02-16 11:55:00,
2013-02-16 07:01:00,66.4,64.6,30.89,NNE,13,3.0,7.0,94,0.00,,,0.10,Wunderground v.1.15,2013-02-16 12:01:00,
2013-02-16 07:07:00,66.5,64.7,30.89,North,354,2.0,7.0,94,0.00,,,0.10,Wunderground v.1.15,2013-02-16 12:07:00,
2013-02-16 07:13:00,66.4,64.6,30.90,West,276,2.0,7.0,94,0.00,,,0.10,Wunderground v.1.15,2013-02-16 12:13:00,
2013-02-16 07:19:00,66.5,64.7,30.90,North,1,1.0,7.0,94,0.00,,,0.10,Wunderground v.1.15,2013-02-16 12:19:00,
2013-02-16 07:25:00,66.4,64.6,30.90,NNE,13,1.0,7.0,94,0.00,,,0.10,Wunderground v.1.15,2013-02-16 12:25:00,
2013-02-16 07:30:00,66.3,64.5,30.90,NNE,27,1.0,7.0,94,0.00,,,0.10,Wunderground v.1.15,2013-02-16 12:30:00,
2013-02-16 07:36:00,66.4,64.6,30.90,NNW,338,2.0,7.0,94,0.00,,,0.10,Wunderground v.1.15,2013-02-16 12:36:00,
2013-02-16 07:42:00,66.6,64.8,30.90,WNW,301,1.0,7.0,94,0.00,,,0.10,Wunderground v.1.15,2013-02-16 12:42:00,
2013-02-16 07:48:00,66.5,64.7,30.90,NE,40,1.0,7.0,94,0.00,,,0.10,Wunderground v.1.15,2013-02-16 12:48:00,
2013-02-16 07:53:00,66.3,64.2,30.90,WNW,291,2.0,7.0,93,0.00,,,0.10,Wunderground v.1.15,2013-02-16 12:53:00,
2013-02-16 07:59:00,66.4,64.3,30.90,NNW,330,1.0,7.0,93,0.00,,,0.10,Wunderground v.1.15,2013-02-16 12:59:00,
2013-02-16 08:05:00,66.7,64.6,30.90,WNW,297,1.0,7.0,93,0.00,,,0.10,Wunderground v.1.15,2013-02-16 13:05:00,
2013-02-16 08:11:00,66.6,64.5,30.90,NNW,343,1.0,7.0,93,0.00,,,0.10,Wunderground v.1.15,2013-02-16 13:11:00,
2013-02-16 08:16:00,66.4,64.0,30.91,NNW,327,1.0,7.0,92,0.00,,,0.10,Wunderground v.1.15,2013-02-16 13:16:00,
2013-02-16 08:21:00,66.3,63.9,30.91,North,359,1.0,7.0,92,0.00,,,0.10,Wunderground v.1.15,2013-02-16 13:21:00,
2013-02-16 08:27:00,66.3,63.9,30.91,NE,42,1.0,7.0,92,0.00,,,0.10,Wunderground v.1.15,2013-02-16 13:27:00,
2013-02-16 08:33:00,66.5,64.1,30.91,NW,323,1.0,7.0,92,0.00,,,0.10,Wunderground v.1.15,2013-02-16 13:33:00,
2013-02-16 08:39:00,66.6,64.2,30.91,NNW,336,1.0,7.0,92,0.00,,,0.10,Wunderground v.1.15,2013-02-16 13:39:00,
2013-02-16 08:45:00,66.7,64.0,30.91,NW,307,1.0,7.0,91,0.00,,,0.10,Wunderground v.1.15,2013-02-16 13:45:00,
2013-02-16 08:51:00,66.9,64.2,30.91,NNW,341,1.0,3.0,91,0.00,,,0.10,Wunderground v.1.15,2013-02-16 13:51:00,
2013-02-16 08:57:00,66.9,64.2,30.92,WNW,300,1.0,7.0,91,0.00,,,0.10,Wunderground v.1.15,2013-02-16 13:57:00,
2013-02-16 09:02:00,66.9,64.2,30.92,NW,316,1.0,7.0,91,0.00,,,0.10,Wunderground v.1.15,2013-02-16 14:02:00,
2013-02-16 09:07:00,66.9,64.2,30.92,NW,321,1.0,7.0,91,0.00,,,0.10,Wunderground v.1.15,2013-02-16 14:07:00,
2013-02-16 09:13:00,67.0,64.3,30.92,NW,305,1.0,7.0,91,0.00,,,0.10,Wunderground v.1.15,2013-02-16 14:13:00,
2013-02-16 09:19:00,67.2,64.5,30.91,NNE,30,1.0,7.0,91,0.00,,,0.10,Wunderground v.1.15,2013-02-16 14:19:00,
2013-02-16 09:25:00,67.3,64.6,30.92,North,355,1.0,7.0,91,0.00,,,0.10,Wunderground v.1.15,2013-02-16 14:25:00,
2013-02-16 09:30:00,67.7,65.0,30.92,NW,321,1.0,7.0,91,0.00,,,0.10,Wunderground v.1.15,2013-02-16 14:30:00,
2013-02-16 09:36:00,67.8,64.8,30.92,WNW,302,1.0,7.0,90,0.00,,,0.10,Wunderground v.1.15,2013-02-16 14:36:00,
2013-02-16 09:42:00,68.0,64.6,30.92,NNE,18,1.0,7.0,89,0.00,,,0.10,Wunderground v.1.15,2013-02-16 14:42:00,
2013-02-16 09:48:00,68.2,64.8,30.92,NNW,348,1.0,7.0,89,0.00,,,0.10,Wunderground v.1.15,2013-02-16 14:48:00,
2013-02-16 09:54:00,68.4,64.7,30.92,NW,310,1.0,7.0,88,0.00,,,0.10,Wunderground v.1.15,2013-02-16 14:54:00,
2013-02-16 10:00:00,68.2,64.5,30.92,West,276,1.0,1.0,88,0.00,,,0.10,Wunderground v.1.15,2013-02-16 15:00:00,
2013-02-16 10:06:00,68.1,64.4,30.92,NW,323,1.0,7.0,88,0.00,,,0.10,Wunderground v.1.15,2013-02-16 15:06:00,
2013-02-16 10:12:00,68.1,64.7,30.92,North,349,1.0,7.0,89,0.00,,,0.10,Wunderground v.1.15,2013-02-16 15:12:00,
2013-02-16 10:18:00,68.1,64.4,30.92,NNW,329,1.0,7.0,88,0.00,,,0.10,Wunderground v.1.15,2013-02-16 15:18:00,
2013-02-16 10:23:00,68.4,64.7,30.93,NW,314,1.0,7.0,88,0.00,,,0.10,Wunderground v.1.15,2013-02-16 15:23:00,
2013-02-16 10:29:00,68.8,64.8,30.93,NW,309,1.0,7.0,87,0.00,,,0.10,Wunderground v.1.15,2013-02-16 15:29:00,
2013-02-16 10:35:00,68.9,64.9,30.93,NW,317,2.0,7.0,87,0.00,,,0.10,Wunderground v.1.15,2013-02-16 15:35:00,
2013-02-16 10:41:00,69.2,65.5,30.92,NNW,330,2.0,7.0,88,0.00,,,0.10,Wunderground v.1.15,2013-02-16 15:41:00,
2013-02-16 10:47:00,69.7,65.0,30.93,NW,310,2.0,7.0,85,0.00,,,0.10,Wunderground v.1.15,2013-02-16 15:47:00,
2013-02-16 10:53:00,69.7,65.0,30.93,WNW,301,2.0,7.0,85,0.00,,,0.10,Wunderground v.1.15,2013-02-16 15:53:00,
2013-02-16 10:59:00,70.0,65.3,30.93,NW,311,2.0,7.0,85,0.00,,,0.10,Wunderground v.1.15,2013-02-16 15:59:00,
2013-02-16 11:04:00,70.7,65.6,30.93,NW,319,2.0,7.0,84,0.00,,,0.10,Wunderground v.1.15,2013-02-16 16:04:00,
2013-02-16 11:10:00,71.1,66.0,30.93,NNW,343,1.0,7.0,84,0.00,,,0.10,Wunderground v.1.15,2013-02-16 16:10:00,
2013-02-16 11:16:00,71.2,65.4,30.93,WNW,302,2.0,7.0,82,0.00,,,0.10,Wunderground v.1.15,2013-02-16 16:16:00,
2013-02-16 11:22:00,71.4,65.6,30.93,NW,304,1.0,7.0,82,0.00,,,0.10,Wunderground v.1.15,2013-02-16 16:22:00,
2013-02-16 11:28:00,72.0,66.2,30.93,NW,309,2.0,7.0,82,0.00,,,0.10,Wunderground v.1.15,2013-02-16 16:28:00,
2013-02-16 11:34:00,72.7,66.2,30.93,NW,315,2.0,7.0,80,0.00,,,0.10,Wunderground v.1.15,2013-02-16 16:34:00,
2013-02-16 11:40:00,73.3,66.4,30.93,NW,321,2.0,7.0,79,0.00,,,0.10,Wunderground v.1.15,2013-02-16 16:40:00,
2013-02-16 11:46:00,72.8,65.5,30.93,NW,315,2.0,7.0,78,0.00,,,0.10,Wunderground v.1.15,2013-02-16 16:46:00,
2013-02-16 11:51:00,73.0,66.1,30.93,NW,309,2.0,7.0,79,0.00,,,0.10,Wunderground v.1.15,2013-02-16 16:51:00,
2013-02-16 11:57:00,73.1,65.1,30.93,WNW,288,2.0,7.0,76,0.00,,,0.10,Wunderground v.1.15,2013-02-16 16:57:00,
2013-02-16 12:02:00,73.1,65.1,30.93,WNW,301,2.0,7.0,76,0.00,,,0.10,Wunderground v.1.15,2013-02-16 17:02:00,
2013-02-16 12:08:00,73.0,65.7,30.93,NW,309,2.0,7.0,78,0.00,,,0.10,Wunderground v.1.15,2013-02-16 17:08:00,
2013-02-16 12:13:00,72.8,65.5,30.93,WNW,300,2.0,7.0,78,0.00,,,0.10,Wunderground v.1.15,2013-02-16 17:13:00,
2013-02-16 12:18:00,72.5,65.6,30.93,NW,309,2.0,7.0,79,0.00,,,0.10,Wunderground v.1.15,2013-02-16 17:18:00,
2013-02-16 12:24:00,72.4,65.5,30.93,NW,323,3.0,7.0,79,0.00,,,0.10,Wunderground v.1.15,2013-02-16 17:24:00,
2013-02-16 12:30:00,72.1,64.1,30.92,WNW,301,3.0,3.0,76,0.00,,,0.10,Wunderground v.1.15,2013-02-16 17:30:00,
2013-02-16 12:35:00,72.1,62.6,30.92,ESE,111,3.0,7.0,72,0.00,,,0.10,Wunderground v.1.15,2013-02-16 17:35:00,
2013-02-16 12:40:00,72.3,63.5,30.92,NW,315,3.0,7.0,74,0.00,,,0.10,Wunderground v.1.15,2013-02-16 17:40:00,
2013-02-16 12:46:00,72.0,61.7,30.92,NW,317,3.0,7.0,70,0.00,,,0.10,Wunderground v.1.15,2013-02-16 17:46:00,
2013-02-16 12:52:00,71.8,60.2,30.92,WNW,300,2.0,7.0,67,0.00,,,0.10,Wunderground v.1.15,2013-02-16 17:52:00,
2013-02-16 12:57:00,72.6,61.0,30.92,NW,310,2.0,7.0,67,0.00,,,0.10,Wunderground v.1.15,2013-02-16 17:57:00,
2013-02-16 13:02:00,73.4,60.9,30.91,NW,318,2.0,7.0,65,0.00,,,0.10,Wunderground v.1.15,2013-02-16 18:02:00,
2013-02-16 13:08:00,73.4,60.5,30.92,West,274,2.0,7.0,64,0.00,,,0.10,Wunderground v.1.15,2013-02-16 18:08:00,
2013-02-16 13:13:00,73.7,61.2,30.91,NNW,334,3.0,7.0,65,0.00,,,0.10,Wunderground v.1.15,2013-02-16 18:13:00,
2013-02-16 13:19:00,73.3,60.8,30.91,NW,316,3.0,7.0,65,0.00,,,0.10,Wunderground v.1.15,2013-02-16 18:19:00,
2013-02-16 13:25:00,72.8,60.8,30.91,NW,311,3.0,7.0,66,0.00,,,0.10,Wunderground v.1.15,2013-02-16 18:25:00,
2013-02-16 13:30:00,72.5,60.1,30.91,North,359,3.0,3.0,65,0.00,,,0.10,Wunderground v.1.15,2013-02-16 18:30:00,
2013-02-16 13:36:00,72.3,59.9,30.91,West,278,3.0,7.0,65,0.00,,,0.10,Wunderground v.1.15,2013-02-16 18:36:00,
2013-02-16 13:42:00,72.6,61.4,30.91,West,280,2.0,7.0,68,0.00,,,0.10,Wunderground v.1.15,2013-02-16 18:42:00,
2013-02-16 13:48:00,72.3,59.9,30.91,NW,311,2.0,7.0,65,0.00,,,0.10,Wunderground v.1.15,2013-02-16 18:48:00,
2013-02-16 13:53:00,71.9,56.8,30.90,WNW,302,3.0,7.0,59,0.00,,,0.10,Wunderground v.1.15,2013-02-16 18:53:00,
2013-02-16 13:59:00,71.8,57.6,30.90,WNW,293,4.0,7.0,61,0.00,,,0.10,Wunderground v.1.15,2013-02-16 18:59:00,
2013-02-16 14:04:00,71.8,57.6,30.90,WNW,287,4.0,7.0,61,0.00,,,0.10,Wunderground v.1.15,2013-02-16 19:04:00,
2013-02-16 14:10:00,72.1,58.8,30.90,WNW,302,4.0,4.0,63,0.00,,,0.10,Wunderground v.1.15,2013-02-16 19:10:00,
2013-02-16 14:15:00,71.8,58.1,30.90,WNW,301,4.0,7.0,62,0.00,,,0.10,Wunderground v.1.15,2013-02-16 19:15:00,
2013-02-16 14:21:00,71.6,59.2,30.90,WNW,282,5.0,8.0,65,0.00,,,0.10,Wunderground v.1.15,2013-02-16 19:21:00,
2013-02-16 14:26:00,71.3,56.7,30.90,WNW,299,5.0,8.0,60,0.00,,,0.10,Wunderground v.1.15,2013-02-16 19:26:00,
2013-02-16 14:32:00,70.9,59.8,30.90,WNW,287,5.0,7.0,68,0.00,,,0.10,Wunderground v.1.15,2013-02-16 19:32:00,
2013-02-16 14:38:00,70.7,59.2,30.91,NW,311,5.0,7.0,67,0.00,,,0.10,Wunderground v.1.15,2013-02-16 19:38:00,
2013-02-16 14:44:00,70.4,60.9,30.91,WNW,295,5.0,9.0,72,0.00,,,0.10,Wunderground v.1.15,2013-02-16 19:44:00,
2013-02-16 14:49:00,69.9,60.8,30.90,NW,304,5.0,9.0,73,0.00,,,0.10,Wunderground v.1.15,2013-02-16 19:49:00,
2013-02-16 14:55:00,69.8,61.9,30.90,NW,308,4.0,7.0,76,0.00,,,0.10,Wunderground v.1.15,2013-02-16 19:55:00,
2013-02-16 15:01:00,69.1,61.6,30.91,WNW,300,5.0,6.0,77,0.00,,,0.10,Wunderground v.1.15,2013-02-16 20:01:00,
2013-02-16 15:07:00,69.0,61.1,30.91,WNW,287,5.0,7.0,76,0.00,,,0.10,Wunderground v.1.15,2013-02-16 20:07:00,
2013-02-16 15:12:00,68.8,60.6,30.90,West,276,4.0,7.0,75,0.00,,,0.10,Wunderground v.1.15,2013-02-16 20:12:00,
2013-02-16 15:18:00,68.7,58.9,30.91,West,281,5.0,7.0,71,0.00,,,0.10,Wunderground v.1.15,2013-02-16 20:18:00,
2013-02-16 15:24:00,68.8,59.4,30.91,WNW,298,6.0,9.0,72,0.00,,,0.10,Wunderground v.1.15,2013-02-16 20:24:00,
2013-02-16 15:30:00,68.7,60.1,30.91,NNW,329,7.0,7.0,74,0.00,,,0.10,Wunderground v.1.15,2013-02-16 20:30:00,
2013-02-16 15:36:00,68.4,59.4,30.91,WNW,285,6.0,9.0,73,0.00,,,0.10,Wunderground v.1.15,2013-02-16 20:36:00,
2013-02-16 15:42:00,68.0,58.2,30.92,NW,305,6.0,8.0,71,0.00,,,0.10,Wunderground v.1.15,2013-02-16 20:42:00,
2013-02-16 15:48:00,67.8,57.7,30.92,WNW,301,6.0,9.0,70,0.00,,,0.10,Wunderground v.1.15,2013-02-16 20:48:00,
2013-02-16 15:54:00,67.7,58.7,30.92,NNW,327,6.0,8.0,73,0.00,,,0.10,Wunderground v.1.15,2013-02-16 20:54:00,
2013-02-16 16:00:00,67.9,58.9,30.92,WNW,295,6.0,7.0,73,0.00,,,0.10,Wunderground v.1.15,2013-02-16 21:00:00,
2013-02-16 16:05:00,67.8,58.1,30.93,WNW,300,6.0,8.0,71,0.00,,,0.10,Wunderground v.1.15,2013-02-16 21:05:00,
2013-02-16 16:11:00,67.8,58.1,30.92,WNW,302,6.0,7.0,71,0.00,,,0.10,Wunderground v.1.15,2013-02-16 21:11:00,
2013-02-16 16:17:00,67.7,58.0,30.93,NW,315,5.0,7.0,71,0.00,,,0.10,Wunderground v.1.15,2013-02-16 21:17:00,
2013-02-16 16:23:00,67.6,58.2,30.93,WNW,295,5.0,7.0,72,0.00,,,0.10,Wunderground v.1.15,2013-02-16 21:23:00,
2013-02-16 16:28:00,67.7,58.0,30.93,NW,318,5.0,7.0,71,0.00,,,0.10,Wunderground v.1.15,2013-02-16 21:28:00,
2013-02-16 16:34:00,67.6,57.5,30.93,NW,316,5.0,7.0,70,0.00,,,0.10,Wunderground v.1.15,2013-02-16 21:34:00,
2013-02-16 16:39:00,67.6,58.2,30.93,NNW,332,5.0,8.0,72,0.00,,,0.10,Wunderground v.1.15,2013-02-16 21:39:00,
2013-02-16 16:45:00,67.8,58.1,30.93,NW,305,5.0,7.0,71,0.00,,,0.10,Wunderground v.1.15,2013-02-16 21:45:00,
2013-02-16 16:51:00,68.3,58.1,30.93,WNW,302,5.0,8.0,70,0.00,,,0.10,Wunderground v.1.15,2013-02-16 21:51:00,
2013-02-16 16:56:00,68.2,56.8,30.93,WNW,283,6.0,8.0,67,0.00,,,0.10,Wunderground v.1.15,2013-02-16 21:56:00,
2013-02-16 17:02:00,68.3,58.1,30.93,West,271,6.0,9.0,70,0.00,,,0.10,Wunderground v.1.15,2013-02-16 22:02:00,
2013-02-16 17:08:00,68.2,57.6,30.93,NNW,328,6.0,9.0,69,0.00,,,0.10,Wunderground v.1.15,2013-02-16 22:08:00,
2013-02-16 17:14:00,68.0,57.8,30.94,NW,319,6.0,7.0,70,0.00,,,0.10,Wunderground v.1.15,2013-02-16 22:14:00,
2013-02-16 17:19:00,67.9,58.1,30.94,NW,316,5.0,7.0,71,0.00,,,0.10,Wunderground v.1.15,2013-02-16 22:19:00,
2013-02-16 17:25:00,67.7,57.6,30.95,WNW,286,5.0,8.0,70,0.00,,,0.10,Wunderground v.1.15,2013-02-16 22:25:00,
2013-02-16 17:31:00,67.5,57.4,30.95,NW,322,5.0,7.0,70,0.00,,,0.10,Wunderground v.1.15,2013-02-16 22:31:00,
2013-02-16 17:37:00,67.3,57.6,30.95,NNW,332,5.0,7.0,71,0.00,,,0.10,Wunderground v.1.15,2013-02-16 22:37:00,
2013-02-16 17:42:00,67.3,58.0,30.95,NW,307,5.0,7.0,72,0.00,,,0.10,Wunderground v.1.15,2013-02-16 22:42:00,
2013-02-16 17:47:00,67.1,57.4,30.96,NW,305,5.0,7.0,71,0.00,,,0.10,Wunderground v.1.15,2013-02-16 22:47:00,
2013-02-16 17:53:00,66.9,58.0,30.95,NW,316,4.0,7.0,73,0.00,,,0.10,Wunderground v.1.15,2013-02-16 22:53:00,
2013-02-16 17:59:00,66.8,57.5,30.96,NW,307,4.0,7.0,72,0.00,,,0.10,Wunderground v.1.15,2013-02-16 22:59:00,
2013-02-16 18:05:00,66.8,57.5,30.96,NW,310,4.0,7.0,72,0.00,,,0.10,Wunderground v.1.15,2013-02-16 23:05:00,
2013-02-16 18:10:00,66.8,57.1,30.97,NW,309,4.0,7.0,71,0.00,,,0.10,Wunderground v.1.15,2013-02-16 23:10:00,
2013-02-16 18:16:00,66.8,57.1,30.97,NW,312,4.0,7.0,71,0.00,,,0.10,Wunderground v.1.15,2013-02-16 23:16:00,
2013-02-16 18:22:00,66.8,57.1,30.97,WNW,291,4.0,7.0,71,0.00,,,0.10,Wunderground v.1.15,2013-02-16 23:22:00,
2013-02-16 18:28:00,66.7,56.6,30.97,NNW,346,4.0,7.0,70,0.00,,,0.10,Wunderground v.1.15,2013-02-16 23:28:00,
2013-02-16 18:33:00,66.7,57.0,30.97,NW,316,5.0,7.0,71,0.00,,,0.10,Wunderground v.1.15,2013-02-16 23:33:00,
2013-02-16 18:39:00,66.7,57.4,30.97,North,355,5.0,7.0,72,0.00,,,0.10,Wunderground v.1.15,2013-02-16 23:39:00,
2013-02-16 18:45:00,66.6,56.5,30.97,NW,307,4.0,7.0,70,0.00,,,0.10,Wunderground v.1.15,2013-02-16 23:45:00,
2013-02-16 18:51:00,66.5,57.2,30.97,WNW,292,4.0,7.0,72,0.00,,,0.10,Wunderground v.1.15,2013-02-16 23:51:00,
2013-02-16 18:57:00,66.5,56.8,30.97,WNW,288,4.0,7.0,71,0.00,,,0.10,Wunderground v.1.15,2013-02-16 23:57:00,
2013-02-16 19:02:00,66.6,57.3,30.97,WNW,291,4.0,7.0,72,0.00,,,0.10,Wunderground v.1.15,2013-02-17 00:02:00,
2013-02-16 19:08:00,66.6,57.7,30.97,NW,324,4.0,7.0,73,0.00,,,0.10,Wunderground v.1.15,2013-02-17 00:08:00,
2013-02-16 19:14:00,66.5,57.2,30.98,NW,304,3.0,7.0,72,0.00,,,0.10,Wunderground v.1.15,2013-02-17 00:14:00,
2013-02-16 19:19:00,66.4,57.5,30.98,NNW,327,4.0,7.0,73,0.00,,,0.10,Wunderground v.1.15,2013-02-17 00:19:00,
2013-02-16 19:25:00,66.7,59.6,30.98,North,349,4.0,7.0,78,0.00,,,0.10,Wunderground v.1.15,2013-02-17 00:25:00,
2013-02-16 19:31:00,66.7,59.3,30.99,NW,311,4.0,7.0,77,0.00,,,0.10,Wunderground v.1.15,2013-02-17 00:31:00,
2013-02-16 19:37:00,66.4,59.0,30.99,WNW,303,4.0,7.0,77,0.00,,,0.10,Wunderground v.1.15,2013-02-17 00:37:00,
2013-02-16 19:43:00,66.4,59.3,30.99,NW,326,4.0,7.0,78,0.00,,,0.10,Wunderground v.1.15,2013-02-17 00:43:00,
2013-02-16 19:48:00,66.2,58.8,30.99,WNW,301,4.0,7.0,77,0.00,,,0.10,Wunderground v.1.15,2013-02-17 00:48:00,
2013-02-16 19:54:00,66.1,59.0,30.99,WNW,298,4.0,8.0,78,0.00,,,0.10,Wunderground v.1.15,2013-02-17 00:54:00,
2013-02-16 20:00:00,65.9,58.8,31.00,WNW,295,4.0,7.0,78,0.00,,,0.10,Wunderground v.1.15,2013-02-17 01:00:00,
2013-02-16 20:05:00,65.8,58.7,31.00,WNW,302,5.0,7.0,78,0.00,,,0.10,Wunderground v.1.15,2013-02-17 01:05:00,
2013-02-16 20:11:00,65.6,58.2,31.00,WNW,303,5.0,7.0,77,0.00,,,0.10,Wunderground v.1.15,2013-02-17 01:11:00,
2013-02-16 20:17:00,65.4,58.0,31.01,NW,311,4.0,7.0,77,0.00,,,0.10,Wunderground v.1.15,2013-02-17 01:17:00,
2013-02-16 20:23:00,65.2,58.2,31.01,North,355,4.0,9.0,78,0.00,,,0.10,Wunderground v.1.15,2013-02-17 01:23:00,
2013-02-16 20:29:00,65.1,58.1,31.01,NW,307,4.0,9.0,78,0.00,,,0.10,Wunderground v.1.15,2013-02-17 01:29:00,
2013-02-16 20:34:00,65.0,58.3,31.02,WNW,300,4.0,7.0,79,0.00,,,0.10,Wunderground v.1.15,2013-02-17 01:34:00,
2013-02-16 20:40:00,65.1,58.4,31.02,WNW,297,4.0,7.0,79,0.00,,,0.10,Wunderground v.1.15,2013-02-17 01:40:00,
2013-02-16 20:46:00,64.9,57.5,31.03,NW,325,5.0,7.0,77,0.00,,,0.10,Wunderground v.1.15,2013-02-17 01:46:00,
2013-02-16 20:52:00,64.6,57.6,31.03,NNW,329,5.0,7.0,78,0.00,,,0.10,Wunderground v.1.15,2013-02-17 01:52:00,
2013-02-16 20:58:00,64.4,57.0,31.04,NW,314,5.0,7.0,77,0.00,,,0.10,Wunderground v.1.15,2013-02-17 01:58:00,
2013-02-16 21:04:00,64.3,56.9,31.04,NW,319,5.0,7.0,77,0.00,,,0.10,Wunderground v.1.15,2013-02-17 02:04:00,
2013-02-16 21:10:00,64.3,56.9,31.04,North,355,5.0,5.0,77,0.00,,,0.10,Wunderground v.1.15,2013-02-17 02:10:00,
2013-02-16 21:15:00,64.0,56.3,31.04,WNW,291,5.0,7.0,76,0.00,,,0.10,Wunderground v.1.15,2013-02-17 02:15:00,
2013-02-16 21:21:00,63.8,55.4,31.05,NW,310,5.0,7.0,74,0.00,,,0.10,Wunderground v.1.15,2013-02-17 02:21:00,
2013-02-16 21:27:00,63.6,55.2,31.05,NW,311,5.0,7.0,74,0.00,,,0.10,Wunderground v.1.15,2013-02-17 02:27:00,
2013-02-16 21:33:00,63.2,54.8,31.05,WNW,288,5.0,8.0,74,0.00,,,0.10,Wunderground v.1.15,2013-02-17 02:33:00,
2013-02-16 21:38:00,63.0,54.9,31.06,WNW,302,5.0,8.0,75,0.00,,,0.10,Wunderground v.1.15,2013-02-17 02:38:00,
2013-02-16 21:44:00,63.0,54.9,31.06,NNW,338,4.0,7.0,75,0.00,,,0.10,Wunderground v.1.15,2013-02-17 02:44:00,
2013-02-16 21:50:00,62.9,54.5,31.06,NW,311,5.0,5.0,74,0.00,,,0.10,Wunderground v.1.15,2013-02-17 02:50:00,
2013-02-16 21:56:00,62.6,54.2,31.06,NW,322,5.0,7.0,74,0.00,,,0.10,Wunderground v.1.15,2013-02-17 02:56:00,
2013-02-16 22:02:00,62.5,54.1,31.06,NW,314,5.0,7.0,74,0.00,,,0.10,Wunderground v.1.15,2013-02-17 03:02:00,
2013-02-16 22:07:00,62.3,53.9,31.06,NNW,345,4.0,7.0,74,0.00,,,0.10,Wunderground v.1.15,2013-02-17 03:07:00,
2013-02-16 22:12:00,62.1,54.4,31.06,North,354,4.0,7.0,76,0.00,,,0.10,Wunderground v.1.15,2013-02-17 03:12:00,
2013-02-16 22:17:00,61.9,53.9,31.06,NW,307,4.0,7.0,75,0.00,,,0.10,Wunderground v.1.15,2013-02-17 03:17:00,
2013-02-16 22:23:00,61.5,53.5,31.06,WNW,302,3.0,7.0,75,0.00,,,0.10,Wunderground v.1.15,2013-02-17 03:23:00,
2013-02-16 22:28:00,61.3,53.3,31.06,NW,312,3.0,9.0,75,0.00,,,0.10,Wunderground v.1.15,2013-02-17 03:28:00,
2013-02-16 22:33:00,61.1,53.1,31.07,NNW,330,3.0,7.0,75,0.00,,,0.10,Wunderground v.1.15,2013-02-17 03:33:00,
2013-02-16 22:38:00,61.0,53.4,31.07,NNW,345,3.0,7.0,76,0.00,,,0.10,Wunderground v.1.15,2013-02-17 03:38:00,
2013-02-16 22:44:00,60.9,53.3,31.06,NNW,330,3.0,7.0,76,0.00,,,0.10,Wunderground v.1.15,2013-02-17 03:44:00,
2013-02-16 22:50:00,60.8,53.2,31.07,NW,307,4.0,7.0,76,0.00,,,0.10,Wunderground v.1.15,2013-02-17 03:50:00,
2013-02-16 22:55:00,60.9,53.6,31.07,NNE,12,4.0,7.0,77,0.00,,,0.10,Wunderground v.1.15,2013-02-17 03:55:00,
2013-02-16 23:01:00,61.2,53.6,31.07,NNW,328,4.0,7.0,76,0.00,,,0.10,Wunderground v.1.15,2013-02-17 04:01:00,
2013-02-16 23:07:00,60.9,52.6,31.08,NE,38,4.0,7.0,74,0.00,,,0.10,Wunderground v.1.15,2013-02-17 04:07:00,
2013-02-16 23:13:00,60.8,52.8,31.08,NW,311,4.0,7.0,75,0.00,,,0.10,Wunderground v.1.15,2013-02-17 04:13:00,
2013-02-16 23:19:00,60.6,52.6,31.08,NW,316,3.0,7.0,75,0.00,,,0.10,Wunderground v.1.15,2013-02-17 04:19:00,
2013-02-16 23:24:00,60.5,52.5,31.08,WNW,290,3.0,7.0,75,0.00,,,0.10,Wunderground v.1.15,2013-02-17 04:24:00,
2013-02-16 23:30:00,60.5,52.5,31.08,WNW,303,3.0,7.0,75,0.00,,,0.10,Wunderground v.1.15,2013-02-17 04:30:00,
2013-02-16 23:36:00,60.6,53.0,31.08,NNW,332,4.0,7.0,76,0.00,,,0.10,Wunderground v.1.15,2013-02-17 04:36:00,
2013-02-16 23:41:00,60.4,52.4,31.08,NW,314,4.0,7.0,75,0.00,,,0.10,Wunderground v.1.15,2013-02-17 04:41:00,
2013-02-16 23:46:00,60.2,51.9,31.08,WNW,287,4.0,7.0,74,0.00,,,0.10,Wunderground v.1.15,2013-02-17 04:46:00,
2013-02-16 23:52:00,60.1,52.5,31.08,WNW,284,4.0,7.0,76,0.00,,,0.10,Wunderground v.1.15,2013-02-17 04:52:00,
2013-02-16 23:58:00,60.0,52.4,31.08,NNW,327,4.0,7.0,76,0.00,,,0.10,Wunderground v.1.15,2013-02-17 04:58:00,